Regional Weather Roundup
Issued by NWS Wakefield, VA

Home | Current Version | Previous Version | Graphics & Text | Print | Product List | Glossary On
Versions: 1 2 3 4 5 6 7 8 9 10 11 12 13 14 15 16 17 18 19 20 21 22 23 24 25 26 27 28 29 30 31 32 33 34 35 36 37 38 39 40 41 42 43 44 45 46 47 48 49
000
ASUS41 KAKQ 260314
RWRAKQ

REGIONAL WEATHER ROUNDUP
NATIONAL WEATHER SERVICE WAKEFIELD VA
1100 PM EDT MON MAY 25 2015

Note: "fair" indicates few or no clouds below 12,000 feet with no
significant weather and/or obstructions to visibility. * = Denotes
station may not report precipitation (e.g., rain,snow,etc.),
thunder or fog.

VAZ042-051-052>054-056-260400-
NORTHERN VIRGINIA

CITY           SKY/WX    TMP DP  RH WIND       PRES   REMARKS
WASH NATIONAL  MOCLDY    75  60  59 S9        30.22S
DULLES         PTCLDY    73  56  54 S9        30.21S
FORT BELVOIR   CLEAR     66  60  79 SE5       30.22R
QUANTICO       CLEAR     74  64  71 S8        30.23R
FREDERICKSBRG* CLEAR     71  60  67 S5        30.22S
STAFFORD*      CLEAR     67  57  69 S3        30.26S
WARRENTON      CLEAR     72  59  64 S6        30.21F
CULPEPER*      CLEAR     69  57  65 S6        30.22S
MANASSAS*      CLEAR     70  57  64 S5        30.21
LEESBURG*      CLEAR     73  61  64 S7        30.21S
WINCHESTER     CLEAR     72  50  46 S5        30.20S
FRONT ROYAL*   FAIR      72  57  60 SW7       30.19S
LURAY*         FAIR      72  57  60 SW6       30.22S
$$

VAZ048-049-060>072-079>083-260400-
CENTRAL AND SOUTH CENTRAL VIRGINIA

CITY           SKY/WX    TMP DP  RH WIND       PRES   REMARKS
RICHMOND       PTCLDY    70  58  65 S7        30.26R
CHESTERFIELD*  NOT AVBL
PETERSBURG*    CLEAR     65  58  76 CALM      30.27R
HANOVER        CLEAR     70  57  63 VRB3      30.26S
TAPPAHANNOCK*  CLEAR     67  55  64 CALM      30.26S
QUINTON*       FAIR      71  58  62 S6        30.26S
CHARLOTTSVILLE CLEAR     69  56  62 S10       30.23R
GORDONSVILLE*  FAIR      61  57  87 CALM      30.22F
ORANGE*        CLEAR     64  59  82 CALM      30.24F
LOUISA*        CLEAR     72  57  60 S3        30.22F
BUMPASS*       FAIR      67  57  69 MISG      30.23F
FARMVILLE*     CLEAR     67  57  70 CALM      30.23F
CREWE*         FAIR      61  58  88 CALM      30.26S
FORT PICKETT*  FAIR      64  57  77 CALM      30.27R
CHASE CITY*    FAIR      65  60  82 CALM      30.26S
CLARKSVILLE*   FAIR      61  57  88 CALM      30.25S
SOUTH HILL*    CLEAR     63  56  80 CALM      30.33R
LAWRENCEVILLE* FAIR      70  57  64 S3        30.27R
EMPORIA*       CLEAR     66  59  77 SE5       30.29R
$$

VAZ088>098-260400-
SOUTHEAST VIRGINIA

CITY           SKY/WX    TMP DP  RH WIND       PRES   REMARKS
NORFOLK        CLEAR     70  58  65 S12       30.29R
VIRGINIA BEACH PTCLDY    72  59  63 S8        30.29S
NORFOLK NAVAL  CLEAR     76  58  53 S8        30.30R
WEST POINT*    CLEAR     75  54  48 S10       30.28S
SALUDA*        FAIR      69  62  77 SE5       30.27R
NEWPORT NEWS   CLEAR     75  58  55 S10       30.28R
LANGLEY AFB    CLEAR     72  58  62 SW13      30.28R
FORT EUSTIS    CLEAR     72  58  63 S10       30.27R
WILLIAMSBURG*  CLEAR     75  61  60 S7        30.29R
HR EXEC AP*    FAIR      70  57  64 S8        30.31R
FRANKLIN*      CLEAR     67  60  79 S7        30.29S
WAKEFIELD      CLEAR     71  60  68 S6        30.28R
$$

VAZ020-022-025-037-045-260400-
WEST CENTRAL AND SOUTHWEST VIRGINIA

CITY           SKY/WX    TMP DP  RH WIND       PRES   REMARKS
STAUNTON*      CLEAR     64  55  71 CALM      30.26R
WAYNESBORO*    FAIR      69  55  62 S6        30.26R
HOT SPRINGS VA CLEAR     62  53  72 S8        30.33S
LYNCHBURG      CLEAR     63  56  78 CALM      30.27S
DANVILLE       CLEAR     64  57  78 CALM      30.26R
SOUTH BOSTON*  FAIR      66  58  75 CALM      30.25S
MARTINSVILLE   CLEAR     61  61 100 CALM      30.28S
ROANOKE        CLEAR     72  55  55 CALM      30.27S
BLACKSBURG     CLEAR     63  55  74 E3        30.32S
DUBLIN*        PTCLDY    65  58  77 CALM      30.30F
MARION*        CLOUDY    69  56  63 E3        30.31R
HILLSVILLE*    PTCLDY    64  55  72 S5        30.32S
RICHLANDS*     FAIR      69  57  66 SE5       30.26S
WISE*          MOCLDY    72  54  53 S6        30.26R
ABINGDON*      CLOUDY    71  58  63 CALM      30.25R
$$

MDZ021>025-VAZ099-100-260400-
SOUTHERN MARYLAND AND THE DELMARVA PENINSULA

CITY           SKY/WX    TMP DP  RH WIND       PRES   REMARKS
PATUXENT RIVER CLEAR     69  60  73 E10G16    30.24S
BAY BRIDGE APT   N/A    N/A N/A N/A S14       30.23S
LEONARDTOWN    CLEAR     68  59  73 S5        30.26S
DOVER          CLEAR     68  54  61 S10       30.22S
GEORGETOWN     CLEAR     67  56  67 S10       30.27S
EASTON         CLEAR     71  60  68 S13       30.28S
CAMBRIDGE      CLEAR     72  61  68 S9        30.25S
SALISBURY      CLEAR     65  57  75 S8        30.27S
OCEAN CITY     CLEAR     65  59  81 SW10G20   30.29R
WALLOPS ISLAND CLEAR     65  61  87 S13       30.29S
ACCOMACK*      CLEAR     68  61  77 S10G17    30.28S
$$

NCZ012>017-030>032-260400-
NORTH CENTRAL AND EASTERN NORTH CAROLINA

CITY           SKY/WX    TMP DP  RH WIND       PRES   REMARKS
ROANOKE RAPIDS FAIR      70  57  64 S7        30.28S
RALEIGH        PTCLDY    72  59  63 S8        30.28R
ELIZABETH CITY CLEAR     70  61  73 S9        30.31S
AHOSKIE*       CLEAR     66  59  80 S5        30.30S
EDENTON*       CLEAR     71  62  75 S13       30.31S
CURRITUCK*     CLEAR     69  60  71 CALM      30.32R
KILL DEVIL HLS CLEAR     72  63  73 S3        30.31F
MANTEO         PTCLDY    73  64  74 S10       30.33S
CAPE HATTERAS  CLEAR     72  62  71 S10       30.33S
TARBORO*       FAIR      71  60  67 S5        30.31R
GOLDSBORO      NOT AVBL
WASHINGTON     CLEAR     69  61  75 S6        30.32S
GREENVILLE     CLEAR     70  63  78 S7        30.31S
NEW BERN       CLEAR     64  59  83 CALM      30.33S
WILMINGTON     CLEAR     67  63  87 CALM      30.31R
$$

VAZ048-260400-
ELSEWHERE

CITY           SKY/WX    TMP DP  RH WIND       PRES   REMARKS
HARRISBURG PA  PTCLDY    73  61  65 S8        30.18R
BALTIMORE      CLEAR     69  60  73 VRB6      30.22R
ANNAPOLIS      CLEAR     69  61  75 S15       30.23R
ANDREWS AFB    CLEAR     67  61  80 SE9       30.22S
PHILADELPHIA   PTCLDY    73  57  57 S9        30.23R
HENDERSON NC   CLEAR     69  53  57 S6        30.28R
GREENSBORO     PTCLDY    71  57  61 S5        30.26S
ROCKY MOUNT    CLEAR     70  60  70 S6        30.30R
$$

VAZ100-260400-
MARINE

STATION/POSITION TIME  TEMP    WIND        PRES    WAVE   SWELL
                       AIR SEA DIR/SP/G            HT/PER HT/PER
                 (UTC) (F)     (DEG/KT/KT) (MB)    (FT/S) (FT/S)
BRANDYWINE LGT   0200   69 65  200/ 18/ 20 1024.6R
CAPE MAY NJ      0200   65 68  180/ 11/ 16 1024.5R
LEWES DE         0200   69 64  200/  7/ 11 1024.7R
15NM E FENWICK I 0250   64 61              1025.2R   2/ 4
OCEAN-CITY-INLET 0200   64 66  230/  8/ 10 1025.1R
WACHAPREAGUE VA  0200   69 75  210/ 12/ 17 1025.5R
THOMAS POINT MD  0300   69 67  170/ 19/ 21 1024.0R
GOOSES REEF MD   0300   69 67  190/ 16/ 17 1024.7R   2/ 3
SOLOMONS ISLAND  0200      70                N/A
BISHOPS HEAD MD  0200   71 70  170/ 17/ 20 1024.1R
PINEY POINT MD   0200          180/ 10/ 12   N/A
CAMBRIDGE MD     0200   71 71  170/  4/  9 1024.1R
LEWISETTA VA     0200   70 71              1024.0R
RAPPAHANNOCK LGT 0200          160/ 17/ 19 1025.5R
STINGRAY PT      0300   71 69  180/ 14/ 16 1024.6R   2/ 3
YORK RVR RNG VA  0200   74     180/ 15/ 17 1024.4R
YORKTOWN VA      0200   75 71  180/  9/ 12 1024.7R
JAMESTOWN VA     0300   72 74  180/ 10/ 12 1024.3R
DOMINION TERM VA 0200   74     180/ 14/ 18 1025.3R
KIPTOPEKE VA     0200      74  180/ 16/ 19   N/A
CHES BAY BRIDGE  0200   72 70  160/ 14/ 19 1025.0R
CAPE HENRY VA    0200   69     170/  8/ 11 1024.3R
CHESAPEAKE LGHT  0200   68     180/ 22/ 23 1026.0R
WILLOUBY STN VA  0200   74     180/ 16/ 19 1025.9R
CAPE HENRY BUOY  0228      66                N/A     2/ 3
1ST LANDING BUOY 0300      70              1025.4R
CAPE CHARLES BUO 0226      67                N/A     3/ 4   2/ 8
OFFSHORE WE BUOY 0211      67                N/A     3/ 3   2/ 8
64NM E OF VA BCH 0250   66 64  170/  8/ 10 1026.4F   1/ 9   2/ 9
DUCK PIER NC     0200   72 64  180/ 14/ 16 1025.5R
44100 DUCK FRF   0224      63                N/A     2/ 8
44056 DUCK FRF   0211      65                N/A     1/13
OREGON INLET NC  0200   74 77  180/ 12/ 14 1026.9R
HATTERAS NC      0200   74 76  170/  9/ 12 1026.7R
DIAMOND SHLS NC  0250   74 76  170/ 14/ 17 1027.2R   3/ 6   2/ 8
CAPE LOOKOUT NC  0300   74     160/ 11/ 12 1026.7R
$$


USA.gov is the U.S. government's official web portal to all federal, state and local government web resources and services.